Voltar ao catálogo

COSMOS 1275 DEB

AtivoPO
NORAD 12715·DEBRIS·🇷🇺 Russia

Lançado Jun 4, 1981 de Plesetsk Cosmodrome

Loading…

Próximas Passagens (próximas 24 horas)

TLE

AtualizadoSource: Space-Track

Época: Sep 14, 2026, 08:36 UTC

1 12715U 81053BK  26257.35839994  .00001403  00000-0  48511-3 0  9995
2 12715  83.1064  26.1819 0058947 313.0903  75.2124 14.34216587328240

Acompanhe COSMOS 1275 DEB em tempo real com AllMySat

Download on the App Store